This is the latest recevied weather packets stored in our database for station/object VK6JI-11. If no packets are shown the sender has not sent any weather packets the latest 1 day(s).
| Time | Temp. | Humidity | Pressure | Rain* | Wind** | Luminosity | Snow |
|---|---|---|---|---|---|---|---|
| 1778066302 | 16.67° C | 68% | 1028 hPa | 0 mm | - | 0 W/m² | - |
| 1778065940 | 16.67° C | 67% | 1027.9 hPa | 0 mm | - | 0 W/m² | - |
| 1778065819 | 16.67° C | 68% | 1027.9 hPa | 0 mm | - | 0 W/m² | - |
| 1778065699 | 16.67° C | 67% | 1027.9 hPa | 0 mm | - | 0 W/m² | - |
| 1778065219 | 16.67° C | 67% | 1027.9 hPa | 0 mm | - | 0 W/m² | - |
| 1778065097 | 17.22° C | 67% | 1027.9 hPa | 0 mm | - | 0 W/m² | - |
| 1778064733 | 17.22° C | 66% | 1027.9 hPa | 0 mm | - | 0 W/m² | - |
| 1778063769 | 17.78° C | 65% | 1027.7 hPa | 0 mm | - | 0 W/m² | - |
| 1778063648 | 17.78° C | 65% | 1027.7 hPa | 0 mm | - | 0 W/m² | - |
| 1778063528 | 17.78° C | 65% | 1027.7 hPa | 0 mm | - | 0 W/m² | - |
| 1778063288 | 17.78° C | 65% | 1027.6 hPa | 0 mm | - | 0 W/m² | - |
| 1778063046 | 17.78° C | 64% | 1027.6 hPa | 0 mm | - | 0 W/m² | - |
| 1778062685 | 18.33° C | 62% | 1027.6 hPa | 0 mm | - | 0 W/m² | - |
| 1778062563 | 18.33° C | 62% | 1027.6 hPa | 0 mm | - | 0 W/m² | - |
| 1778061243 | 19.44° C | 58% | 1027.4 hPa | 0 mm | - | 0 W/m² | - |
| 1778060762 | 20° C | 57% | 1027.2 hPa | 0 mm | - | 0 W/m² | - |
| 1778060642 | 20° C | 57% | 1027.2 hPa | 0 mm | - | 0 W/m² | - |
| 1778060282 | 20° C | 56% | 1027.1 hPa | 0 mm | - | 0 W/m² | - |
| 1778059443 | 20.56° C | 55% | 1026.9 hPa | 0 mm | - | 7 W/m² | - |
| 1778059322 | 20.56° C | 55% | 1027 hPa | 0 mm | - | 9 W/m² | - |
| 1778059082 | 20.56° C | 55% | 1026.8 hPa | 0 mm | - | 11 W/m² | - |
| 1778058962 | 20.56° C | 54% | 1026.9 hPa | 0 mm | - | 12 W/m² | - |
| 1778058603 | 21.11° C | 54% | 1026.8 hPa | 0 mm | - | 18 W/m² | - |
| 1778057882 | 21.67° C | 54% | 1026.8 hPa | 0 mm | - | 30 W/m² | - |
| 1778057642 | 21.67° C | 54% | 1026.8 hPa | 0 mm | - | 60 W/m² | - |
* Rain latest hour (hover to see other rain measurements)
** Current wind speed in m/s (hover to see current wind gust speed)